Regional Weather Roundup
Issued by NWS Sterling, VA

Home | Current Version | Previous Version | Graphics & Text | Print | Product List | Glossary On
Versions: 1 2 3 4 5 6 7 8 9 10 11 12 13 14 15 16 17 18 19 20 21 22 23 24 25 26 27 28 29 30 31 32 33 34 35 36 37 38 39 40 41 42 43 44 45 46 47 48 49 50
000
ASUS41 KLWX 192211
RWRLWX

REGIONAL WEATHER ROUNDUP
NATIONAL WEATHER SERVICE BALTIMORE MD/WASHINGTON DC
500 PM EST THU JAN 19 2017

Note: "FAIR" indicates few or no clouds below 12,000 feet
with no significant weather and/or obstructions to visibility.
 TC=TEMPERATURE CELSIUS

 * =Non NWS site. Station does not report precipitation (e.g. rain,
    snow, etc.), thunder, or fog.

DCZ001-MDZ009-015-VAZ040>042-051-053>054-192300-
WASHINGTON METRO

CITY           SKY/WX    TMP DP  RH WIND       PRES   REMARKS
WASHINGTON NAT CLOUDY    49  38  65 N7        30.03S
DULLES         MOCLDY    49  35  58 CALM      30.01F
ANDREWS AFB    CLOUDY    47  36  64 NW5       30.02R
FT BELVOIR     CLOUDY    49  38  65 CALM      30.02F
QUANTICO       PTCLDY    45  38  76 CALM      30.03S
COLLEGE PARK*  CLOUDY    48  34  57 CALM      30.02S
LEESBURG*      CLEAR     50  39  66 CALM      30.01F
MANASSAS*      CLEAR    N/A N/A N/A CALM      30.02F
GAITHERSBURG*  CLOUDY    46  34  61 CALM      30.05F

$$

MDZ006>007-011-014-192300-
BALTIMORE METRO

CITY           SKY/WX    TMP DP  RH WIND       PRES   REMARKS
BWI AIRPORT    CLOUDY    48  36  63 NW5       30.01R
MD SCIENCE CTR   N/A     51  34  52 MISG      30.01S
MARTIN STATE   MOCLDY    46  39  76 SE3       30.04R
ANNAPOLIS      PTCLDY    45  37  73 SE6       30.02S
FORT MEADE*    CLOUDY    45  34  65 CALM      30.04F

$$

MDZ012-015-019>023-192300-
MARYLAND EASTERN SHORE

CITY           SKY/WX    TMP DP  RH WIND       PRES   REMARKS
OCEAN CITY     CLOUDY    44  39  82 CALM      30.04R
SALISBURY      CLOUDY    47  36  65 NW6       30.04R
BAY BRIDGE AP* CLOUDY    46  36  66 S3        30.02F
CAMBRIDGE*     CLOUDY    45  36  70 CALM      30.02F
EASTON*        PTCLDY    48  36  61 CALM      30.06S

$$

MDZ017>025-192300-
SOUTHERN MARYLAND

CITY           SKY/WX    TMP DP  RH WIND       PRES   REMARKS
PATUXENT RIVER CLOUDY    45  36  70 SE5       30.02F
ST INIGOES     PTCLDY    47  37  68 E3        30.02S
LEONARDTOWN*   CLOUDY    45  36  70 CALM      30.04S

$$

MDZ003>005-192300-
NORTH CENTRAL MARYLAND

CITY           SKY/WX    TMP DP  RH WIND       PRES   REMARKS
FREDERICK*     CLEAR     46  37  71 CALM      30.04
HAGERSTOWN APT CLEAR     48  33  56 CALM      30.01F
WESTMINSTER*   CLOUDY    46  36  66 CALM      30.00F

$$

MDZ501>502-192300-
WESTERN MARYLAND

CITY           SKY/WX    TMP DP  RH WIND       PRES   REMARKS
OAKLAND*         N/A     41  32  70 CALM      29.97
CUMBERLAND*    CLOUDY    50  36  57 CALM      30.04S

$$

VAZ025>031-192300-
SHENANDOAH VALLEY

CITY           SKY/WX    TMP DP  RH WIND       PRES   REMARKS
WINCHESTER*    CLOUDY    45  36  70 CALM      30.00F
FRONT ROYAL*   CLOUDY    46  37  71 E3        29.99F
LURAY*         PTCLDY    46  41  81 CALM      29.99S
NEW MARKET*    PTCLDY    47  38  70 CALM      29.98S
STAUNTON*      PTCLDY    49  39  68 CALM      29.99F
WAYNESBORO*    PTCLDY    52  39  61 CALM      29.98F

$$

WVZ021-048>050-054>055-192300-
EASTERN WEST VIRGINIA PANHANDLE

CITY           SKY/WX    TMP DP  RH WIND       PRES   REMARKS
MARTINSBURG    CLEAR     49  34  56 VRB3      30.00F
PETERSBURG*    CLOUDY    48  40  76 CALM      29.99S

$$

VAZ036>039-050-192300-
CENTRAL FOOTHILLS

CITY           SKY/WX    TMP DP  RH WIND       PRES   REMARKS
CHARLOTTESVILL CLOUDY    53  38  56 S3        29.99S
CULPEPER*      CLOUDY    49  39  70 CALM      30.02S
ORANGE*          N/A     52  37  58 CALM      30.03S
GORDONSVILLE*  CLOUDY    51  40  64 CALM      30.00S
WARRENTON*     CLOUDY    47  35  63 CALM      30.01R

$$

VAZ055>057-192300-
NORTH AND CENTRAL PIEDMONT

CITY           SKY/WX    TMP DP  RH WIND       PRES   REMARKS
FREDERICKSBRG* CLOUDY    53  39  60 CALM      30.01R
STAFFORD*      CLOUDY    49  38  65 CALM      30.06R

$$

NCZ024-NYZ072-PAZ021-071-VAZ022-071-192300-
OTHER REGIONAL OBSERVATIONS

CITY           SKY/WX    TMP DP  RH WIND       PRES   REMARKS
NEW YORK CITY  CLOUDY    44  33  65 NW8       30.02R
PHILADELPHIA   CLOUDY    46  34  62 NE5       30.03S
PITTSBURGH     CLOUDY    41  35  79 VRB3      30.00F
ROANOKE        MOCLDY    58  37  45 SE7       29.99F
RICHMOND       CLOUDY    52  38  58 CALM      30.02F
RALEIGH        MOCLDY    58  39  49 CALM      30.01S

$$

ANZ530>537-192300-
MARINE OBSERVATIONS

STATION/POSITION TIME  TEMP    WIND        PRES
                       AIR SEA DIR/SP/G
                 (UTC) (F)     (DEG/KT/KT) (MB)
THOMAS PT LIGHT  2200   46 40  120/  5/  5   N/A
BALT KEY BRIDGE  2142   50     260/  3/  3 1016.4R
COVE POINT       2142   44      CALM  /  1 1017.2F
LEWISETTA        2142   44 44  120/  4/  4 1016.5R
SOLOMONS ISLAND  2142   46 41   90/  5/  6   N/A
PINEY POINT      2136          330/  3/  3   N/A

$$




USA.gov is the U.S. government's official web portal to all federal, state and local government web resources and services.